Tracking 30995 objects as of 5-Jul-2025
HD Live streaming from Space Station
objects crossing your sky now

COSMOS 1275 DEB

Track COSMOS 1275 DEB now!
10-day predictions


NORAD ID: 39943
Int'l Code: 1981-053NK
Perigee: 928.3 km
Apogee: 1,144.9 km
Inclination: 83.1 °
Period: 105.7 minutes
Semi major axis: 7407 km
RCS: 0.015 m2 (small)
Launch date: April 25, 1981
Source: Commonwealth of Independent States (former USSR) (CIS)
Launch site: PLESETSK MISSILE AND SPACE COMPLEX (PKMTR)

Note: This is SATELLITE DEBRIS
Your satellite tracking list
Your tracking list is empty




NASA's NSSDC Master Catalog

Two Line Element Set (TLE):
1 39943U 81053ND  25185.98630789  .00000666  00000-0  79336-3 0  9995
2 39943  83.0637  90.6157 0146200 261.0939 114.4742 13.61721215575940
Source of the keplerian elements: AFSPC